760  
ASUS44 KHUN 220010  
RWRHUN  
 
WEATHER ROUNDUP FOR THE TENNESSEE VALLEY  
NATIONAL WEATHER SERVICE HUNTSVILLE AL  
600 PM CST MON JAN 21 2019  
 
ALZ001>004-220100-  
NORTHWEST ALABAMA  
 
CITY SKY/WX TMP DP RH WIND PRES REMARKS
 
COURTLAND HCN N/A 32 N/A N/A E5 N/A WCI 27  
RUSSELLVILLE N/A 32 N/A N/A MISG N/A  
SHOALS AIRPORT FAIR 32 17 54 E7 30.37F WCI 26  
6HR MIN TEMP: 32; 6HR MAX TEMP: 38;  
 
SHOALS TVA RES N/A 32 N/A N/A MISG N/A  

 
 
ALZ005>007-016-220100-  
NORTH CENTRAL ALABAMA  
 
CITY SKY/WX TMP DP RH WIND PRES REMARKS
 
CULLMAN AG STN N/A 37 N/A N/A CALM N/A  
DECATUR AP FAIR 34 13 41 CALM 30.39F  
6HR MIN TEMP: 32; 6HR MAX TEMP: 38;  
 
HUNTSVILLE AP FAIR 33 14 45 E7 30.38F WCI 27  
6HR MIN TEMP: 33; 6HR MAX TEMP: 39;  
 
MERIDIANVILLE CLEAR 33 11 40 CALM 30.38F  
REDSTONE ARSN FAIR 33 9 35 CALM 30.37F  
VINEMONT AP FAIR 32 14 47 CALM 30.38F  

 
 
ALZ008>010-220100-  
NORTHEAST ALABAMA  
 
CITY SKY/WX TMP DP RH WIND PRES REMARKS
 
ALBERTVILLE FAIR 34 10 37 CALM 30.37S  
FORT PAYNE FAIR 32 7 34 E3 30.39S  
SCOTTSBORO AP FAIR 32 12 43 NE5 30.41S WCI 27  
SCOTTSBORO HCN N/A 32 N/A N/A MISG N/A  
VALLEY HEAD N/A 32 N/A N/A MISG N/A  

 
 
TNZ076-096-097-220100-  
SOUTHEASTERN MIDDLE TENNESSEE  
 
CITY SKY/WX TMP DP RH WIND PRES REMARKS
 
TULLAHOMA CLEAR 30 10 43 CALM 30.37S  
WINCHESTER CLEAR 32 9 37 SE5 30.39R WCI 27  

 
   
..SURROUNDING SITES
 
 
 
CITY SKY/WX TMP DP RH WIND PRES REMARKS
 
ATLANTA FAIR 40 16 37 CALM 30.40R  
ANNISTON FAIR 38 13 35 NE3 30.39S  
BIRMINGHAM FAIR 39 9 29 E6 30.40S WCI 35  
CHATTANOOGA MOCLDY 30 4 33 NE6 30.45S WCI 24  
CORINTH FAIR 36 16 44 E9 30.34S WCI 29  
DALTON FAIR 30 10 43 N3 30.46S  
GADSDEN FAIR 34 13 41 NE3 30.41S  
GOLDEN TRNGL FAIR 42 25 50 E9 30.34F  
HALEYVILLE FAIR 34 15 46 SE3 30.36F  
JACKSON TN FAIR 34 17 50 E3 30.32F  
MEMPHIS MOCLDY 40 23 50 SE9 30.27F WCI 34  
NASHVILLE MOCLDY 29 10 45 E8 30.42F WCI 21  
OXFORD MS FAIR 37 23 56 E7 30.31F WCI 32  
ROME FAIR 33 11 39 NE6 30.42S WCI 28  
SAVANNAH CLEAR 34 16 47 CALM 30.35F  
SELMER CLEAR 34 12 40 SE5 30.33S WCI 30  
TUPELO FAIR 39 22 50 E5 30.33F  
TUSCALOOSA FAIR 41 22 46 NE6 30.37F  

 
 
 
 
CLICK HERE TO GO TO PREVIOUS BULLETINS.

The Nexlab AL Page
The Nexlab TN Page Main Text Page